Deering, AK

4:10 PM AKDT on October 19, 2017 (GMT -0800)
Deering (New)

Weather History for PADE - July, 2013

Change the Weather History Date:

Friday, July 12, 2013

  Actual Average (PAOT) Record (PAOT)
Temperature  
Mean Temperature 60 °F -  
Max Temperature 73 °F 60 °F 84 °F (1977)
Min Temperature 46 °F 49 °F 36 °F (1973)
Degree Days  
Heating Degree Days 6    
Growing Degree Days 10 (Base 50)    
Moisture  
Dew Point 50 °F    
Average Humidity 71    
Maximum Humidity 96    
Minimum Humidity 39    
Precipitation  
Precipitation 0.00 in - - ()
Sea Level Pressure  
Sea Level Pressure 30.02 in    
Wind  
Wind Speed 5 mph (North)    
Max Wind Speed 8 mph    
Max Gust Speed 18 mph    
Visibility 10 miles    
Events      
Averages and records for this station are not official NWS values.
T = Trace of Precipitation, MM = Missing Value Source: NWS Daily Summary

Daily Weather History Graph

Daily Weather History Graph

Search for Another Location

Airport or City:

Trip Planner

Search our weather history database for the weather conditions in past years. The results will help you decide how hot, cold, wet, or windy it might be!

Date:

Astronomy

Jul. 12, 2013 Rise Set
Actual Time 4:13 AM AKDT 1:36 AM AKDT
Civil Twilight Sun does not rise Sun does not rise
Nautical Twilight Sun does not rise Sun does not rise
Astronomical Twilight Sun does not rise Sun does not rise
Moon 11:43 AM AKDT (7/12) 12:37 AM AKDT (7/12)
Length of Visible Light 24h 00m
Length of Day
21h 22m
Waxing Crescent, 18% of the Moon is Illuminated
Jul 12
Waxing Crescent
Jul 15
First Quarter
Jul 22
Full
Jul 29
Last Quarter
Aug 6
New

Hourly Weather History & Observations

Time (AKDT) Temp. Dew Point Humidity Pressure Visibility Wind Dir Wind Speed Gust Speed Precip Events Conditions
12:53 AM 53.1 °F 50.0 °F 89% 30.03 in 10.0 mi SSW 6.9 mph - N/A   Clear
1:53 AM 51.1 °F 48.9 °F 92% 30.04 in 10.0 mi SSW 6.9 mph - N/A   Clear
2:53 AM 50.0 °F 48.0 °F 93% 30.04 in 10.0 mi SSW 6.9 mph - N/A   Partly Cloudy
3:53 AM 48.9 °F 46.0 °F 90% 30.04 in 10.0 mi SSW 6.9 mph - N/A   Clear
4:53 AM 46.9 °F 45.0 °F 93% 30.04 in 10.0 mi Calm Calm - N/A   Clear
5:53 AM 46.9 °F 45.0 °F 93% 30.04 in 10.0 mi SSW 3.5 mph - N/A   Mostly Cloudy
6:53 AM 48.0 °F 46.9 °F 96% 30.04 in 10.0 mi Calm Calm - N/A   Clear
7:53 AM 54.0 °F 50.0 °F 86% 30.04 in 10.0 mi Calm Calm - N/A   Clear
8:53 AM 59.0 °F 51.1 °F 75% 30.04 in 10.0 mi Calm Calm - N/A   Clear
9:53 AM 62.1 °F 51.1 °F 67% 30.04 in 10.0 mi Variable 3.5 mph - N/A   Clear
10:53 AM 60.1 °F 50.0 °F 69% 30.04 in 10.0 mi NNE 3.5 mph - N/A   Clear
11:53 AM 60.1 °F 51.1 °F 72% 30.04 in 10.0 mi NNE 5.8 mph 18.4 mph N/A   Clear
12:53 PM 62.1 °F 52.0 °F 70% 30.04 in 10.0 mi NNE 5.8 mph - N/A   Clear
1:53 PM 64.0 °F 52.0 °F 65% 30.03 in 10.0 mi NNE 6.9 mph - N/A   Clear
2:53 PM 66.0 °F 51.1 °F 59% 30.02 in 10.0 mi NNE 6.9 mph - N/A   Clear
3:53 PM 70.0 °F 51.1 °F 51% 30.01 in 10.0 mi North 8.1 mph - N/A   Clear
4:53 PM 69.1 °F 48.9 °F 49% 30.00 in 10.0 mi NNE 8.1 mph - N/A   Clear
5:53 PM 70.0 °F 50.0 °F 49% 29.99 in 10.0 mi North 8.1 mph - N/A   Clear
6:53 PM 72.0 °F 46.9 °F 41% 29.98 in 10.0 mi North 8.1 mph - N/A   Clear
7:53 PM 73.0 °F 46.9 °F 39% 29.98 in 10.0 mi North 6.9 mph - N/A   Clear
8:53 PM 71.1 °F 48.0 °F 44% 29.97 in 10.0 mi NNE 6.9 mph - N/A   Clear
9:53 PM 68.0 °F 51.1 °F 55% 29.97 in 10.0 mi NNE 3.5 mph - N/A   Clear
10:53 PM 62.1 °F 55.9 °F 80% 29.97 in 10.0 mi NNW 5.8 mph - N/A   Clear
11:53 PM 59.0 °F 52.0 °F 78% 29.99 in 10.0 mi WSW 4.6 mph - N/A   Clear